RA2424 USSS-UWKE

Flight info

Callsign RA2424
Flight time N/A
Altitude 40000
Route UMTEK6Z UMTEK M864 AGNOK/K0780F280 M864 KERUN P164 KAMZA/K0783F430 P164 IDMOR M864 IBROT T535 URIDU L158 DIMGI DIMGI3E
Aircraft E55P/M-SBDFGHJ2RWY/LB2

Departure

Time N/A
Airport Koltsovo Airport (USSS)

Arrival

Time 2026-04-19 16:47
Airport Begishevo Airport (UWKE)
Time Latitude Longitude Altitude Speed Heading
2026-04-19 16:25 55.74989 54.61055 17712 ft 333 kts 253°
2026-04-19 16:25 55.74363 54.57208 17712 ft 333 kts 253°
2026-04-19 16:25 55.73717 54.53245 17712 ft 333 kts 253°
2026-04-19 16:26 55.73084 54.49358 17712 ft 333 kts 253°
2026-04-19 16:26 55.72450 54.45471 17712 ft 333 kts 253°
2026-04-19 16:26 55.72041 54.42963 17712 ft 333 kts 253°
2026-04-19 16:26 55.71642 54.40522 17712 ft 333 kts 253°
2026-04-19 16:27 55.71013 54.36668 17712 ft 333 kts 253°
2026-04-19 16:27 55.70388 54.32846 17712 ft 333 kts 253°
2026-04-19 16:27 55.69751 54.28948 17712 ft 333 kts 253°
2026-04-19 16:27 55.69117 54.25075 17712 ft 333 kts 253°
2026-04-19 16:28 55.68523 54.21450 17712 ft 333 kts 253°
2026-04-19 16:28 55.67879 54.17521 17712 ft 333 kts 253°
2026-04-19 16:28 55.67262 54.13763 17712 ft 333 kts 253°
2026-04-19 16:28 55.66605 54.09759 17712 ft 332 kts 253°
2026-04-19 16:29 55.65954 54.05794 17712 ft 332 kts 253°
2026-04-19 16:29 55.65615 54.03735 17712 ft 332 kts 253°
2026-04-19 16:29 55.65169 54.01022 17712 ft 332 kts 253°
2026-04-19 16:29 55.64524 53.97100 17712 ft 332 kts 253°
2026-04-19 16:30 55.63928 53.93481 17712 ft 332 kts 253°
2026-04-19 16:30 55.63287 53.89589 17712 ft 332 kts 253°
2026-04-19 16:30 55.62645 53.85694 17712 ft 332 kts 253°
2026-04-19 16:30 55.62019 53.81906 17712 ft 332 kts 253°
2026-04-19 16:31 55.61366 53.77948 17712 ft 332 kts 253°
2026-04-19 16:31 55.60719 53.74033 17712 ft 332 kts 253°
2026-04-19 16:31 55.60067 53.70087 17712 ft 332 kts 253°
2026-04-19 16:31 55.59427 53.66220 17712 ft 332 kts 253°
2026-04-19 16:32 55.58781 53.62318 17712 ft 332 kts 253°
2026-04-19 16:32 55.58132 53.58404 17712 ft 332 kts 253°
2026-04-19 16:32 55.57499 53.54588 17712 ft 331 kts 253°
2026-04-19 16:32 55.56858 53.50724 17712 ft 331 kts 253°
2026-04-19 16:33 55.56205 53.46787 17712 ft 331 kts 253°
2026-04-19 16:33 55.55563 53.42925 17712 ft 331 kts 253°
2026-04-19 16:33 55.54919 53.39053 17712 ft 331 kts 253°
2026-04-19 16:33 55.54273 53.35169 17712 ft 331 kts 253°
2026-04-19 16:34 55.53601 53.31252 17714 ft 331 kts 250°
2026-04-19 16:34 55.53105 53.27347 17691 ft 330 kts 269°
2026-04-19 16:34 55.53507 53.23367 17651 ft 332 kts 283°
2026-04-19 16:34 55.54061 53.19289 17056 ft 350 kts 283°
2026-04-19 16:35 55.54633 53.15084 16494 ft 364 kts 283°
2026-04-19 16:35 55.55226 53.10720 15930 ft 376 kts 283°
2026-04-19 16:35 55.55841 53.06187 15359 ft 386 kts 283°
2026-04-19 16:35 55.56468 53.01564 15184 ft 382 kts 283°
2026-04-19 16:36 55.57081 52.97045 15174 ft 376 kts 283°
2026-04-19 16:36 55.57692 52.92544 15060 ft 374 kts 283°
2026-04-19 16:36 55.58301 52.88051 14555 ft 382 kts 283°
2026-04-19 16:36 55.58906 52.83586 14369 ft 380 kts 283°
2026-04-19 16:37 55.59520 52.79059 14136 ft 380 kts 283°
2026-04-19 16:37 55.60127 52.74575 13942 ft 379 kts 283°
2026-04-19 16:37 55.60622 52.70922 13780 ft 378 kts 283°
2026-04-19 16:37 55.61315 52.65813 13559 ft 377 kts 283°
2026-04-19 16:38 55.61922 52.61331 13346 ft 377 kts 283°
2026-04-19 16:38 55.62536 52.56797 13121 ft 376 kts 283°
2026-04-19 16:38 55.63102 52.52298 12931 ft 375 kts 277°
2026-04-19 16:38 55.63305 52.47746 12666 ft 374 kts 281°
2026-04-19 16:39 55.64289 52.43519 12462 ft 373 kts 303°
2026-04-19 16:39 55.65926 52.39984 12312 ft 371 kts 309°
2026-04-19 16:39 55.67590 52.36604 12119 ft 371 kts 311°
2026-04-19 16:39 55.69283 52.33247 11900 ft 371 kts 314°
2026-04-19 16:40 55.71235 52.30288 11869 ft 365 kts 321°
2026-04-19 16:40 55.73393 52.27827 11730 ft 360 kts 328°
2026-04-19 16:40 55.75587 52.25756 11086 ft 375 kts 340°
2026-04-19 16:40 55.77911 52.24179 11368 ft 360 kts 335°
2026-04-19 16:41 55.80098 52.21936 10524 ft 368 kts 329°
2026-04-19 16:41 55.82454 52.20198 10062 ft 377 kts 343°
2026-04-19 16:41 55.85079 52.19984 9287 ft 389 kts 12°
2026-04-19 16:41 55.87615 52.21513 9153 ft 384 kts 22°
2026-04-19 16:42 55.89528 52.24506 9553 ft 363 kts 59°
2026-04-19 16:42 55.90329 52.28654 9186 ft 370 kts 77°
2026-04-19 16:42 55.90708 52.33309 8578 ft 380 kts 85°
2026-04-19 16:42 55.90506 52.38002 6953 ft 412 kts 111°
2026-04-19 16:43 55.88582 52.41550 6471 ft 406 kts 145°
2026-04-19 16:43 55.85889 52.41965 5839 ft 404 kts 203°
2026-04-19 16:43 55.83424 52.39932 6226 ft 376 kts 199°
2026-04-19 16:43 55.81126 52.38151 6765 ft 354 kts 202°
2026-04-19 16:44 55.78754 52.36634 6053 ft 369 kts 193°
2026-04-19 16:44 55.76609 52.37086 6831 ft 280 kts 193°
2026-04-19 16:44 55.75035 52.35603 6748 ft 251 kts 204°
2026-04-19 16:44 55.73416 52.34839 5916 ft 230 kts 196°
2026-04-19 16:45 55.72047 52.33845 5500 ft 201 kts 204°
2026-04-19 16:45 55.70754 52.32998 4803 ft 193 kts 201°
2026-04-19 16:45 55.69474 52.32180 3815 ft 201 kts 193°
2026-04-19 16:45 55.68233 52.31479 3485 ft 174 kts 203°
2026-04-19 16:46 55.67468 52.30213 3443 ft 146 kts 226°
2026-04-19 16:46 55.66794 52.28929 3080 ft 137 kts 227°
2026-04-19 16:46 55.66178 52.27721 2728 ft 129 kts 227°
2026-04-19 16:46 55.65599 52.26594 2461 ft 119 kts 226°
2026-04-19 16:47 55.64927 52.25960 1998 ft 140 kts 132°
2026-04-19 16:47 55.64983 52.25691 319 ft 0 kts 149°
2026-04-19 16:47 55.64982 52.25690 318 ft 0 kts 145°